Location: Le Domaine
(47.0333°N, 76.5361°W)
Time: 18:18:27
(UTC-05:00)

Courier 1B - All Passes

Search period start: 21 November 2019 00:00
Search period end: 01 December 2019 00:00
Orbit: 963 x 1209 km, 28.3° (Epoch: 21 November)

Date Brightness Start Highest point End Pass type
(mag) Time Alt. Az. Time Alt. Az. Time Alt. Az.
21 Nov - 04:50:29 10° S 04:51:45 10° SSE 04:52:59 10° SSE visible
21 Nov - 06:40:53 10° SSW 06:44:28 15° S 06:47:57 10° SSE visible
21 Nov - 08:34:55 10° SSW 08:37:08 12° SSW 08:39:19 10° S daylight
22 Nov - 05:47:26 10° SSW 05:51:00 15° S 05:54:30 10° SE visible
22 Nov - 07:40:40 10° SW 07:43:44 13° S 07:46:44 10° SSE daylight
23 Nov - 04:54:08 10° SSW 04:57:32 14° S 05:00:52 10° SE visible
23 Nov - 06:46:42 10° SW 06:50:18 15° S 06:53:49 10° SSE visible
24 Nov - 04:01:04 10° SSW 04:04:03 13° SSE 04:06:58 10° SE visible
24 Nov - 05:52:55 10° SW 05:56:51 16° S 06:00:40 10° SSE visible
24 Nov - 07:47:54 10° SSW 07:49:31 11° SSW 07:51:07 10° S daylight
25 Nov - 03:08:29 10° S 03:10:34 11° SSE 03:12:37 10° SSE visible
25 Nov - 04:59:15 10° SSW 05:03:22 16° S 05:07:20 10° SE visible
25 Nov - 06:53:08 10° SW 06:56:06 13° SSW 06:59:02 10° SSE visible
26 Nov - 04:05:45 10° SSW 04:09:51 16° S 04:13:51 10° SE visible
26 Nov - 05:58:56 10° SW 06:02:39 15° S 06:06:17 10° SSE visible
27 Nov - 03:12:25 10° SSW 03:16:19 15° S 03:20:08 10° SE visible
27 Nov - 05:04:58 10° SW 05:09:11 16° S 05:13:15 10° SSE visible
28 Nov - 02:19:20 10° SSW 02:22:48 14° SSE 02:26:11 10° SE visible
28 Nov - 04:11:10 10° SW 04:15:39 17° S 04:20:01 10° SE visible
28 Nov - 06:05:40 10° SW 06:08:25 12° SSW 06:11:08 10° S visible
29 Nov - 01:26:43 10° S 01:29:16 12° SSE 01:31:47 10° SE night (unlit)
29 Nov - 03:17:31 10° SW 03:22:07 17° S 03:26:35 10° SE visible
29 Nov - 05:11:12 10° SW 05:14:57 15° SSW 05:18:36 10° SSE visible
30 Nov - 02:24:02 10° SSW 02:28:33 17° S 02:32:59 10° SE visible
30 Nov - 04:17:05 10° SW 04:21:27 16° S 04:25:41 10° SSE visible
